Overview Statistics Trail Chart Weather Telemetry Raw packets
 

This is the latest recevied weather packets stored in our database for station/object DK6MR-13. If no packets are shown the sender has not sent any weather packets the latest 10 day(s).

<< 12 13 14 15 16 17 >>
Time Temp. Humidity Pressure Rain* Wind** Luminosity Snow
1777780261 13.89° C 74% 1010.8 hPa 0 mm - - -
1777779360 13.89° C 75% 1010.8 hPa 0 mm - - -
1777778459 13.33° C 77% 1010.8 hPa 0 mm - - -
1777777558 13.89° C 76% 1010.8 hPa 0 mm - - -
1777776657 13.89° C 74% 1010.8 hPa 0 mm - - -
1777775756 13.33° C 80% 1010.8 hPa 0 mm - - -
1777774855 13.33° C 80% 1011.1 hPa 0 mm - - -
1777773954 13.33° C 82% 1011.1 hPa 0 mm - - -
1777773053 13.33° C 83% 1011.1 hPa 0 mm - - -
1777772152 13.33° C 83% 1011.5 hPa 0 mm - - -
1777771253 13.89° C 87% 1011.5 hPa 0 mm - - -
1777770350 13.89° C 87% 1011.5 hPa 0 mm - - -
1777769450 13.89° C 89% 1011.5 hPa 0 mm - - -
1777768549 13.89° C 90% 1011.5 hPa 0 mm - - -
1777767647 13.89° C 91% 1011.8 hPa 0 mm - - -
1777766746 13.89° C 91% 1011.8 hPa 0 mm - - -
1777765845 13.89° C 91% 1012.2 hPa 0 mm - - -
1777764944 13.89° C 92% 1012.2 hPa 0 mm - - -
1777764044 13.89° C 92% 1012.5 hPa 0 mm - - -
1777763143 13.89° C 92% 1012.5 hPa 0 mm - - -
1777762242 13.89° C 92% 1012.5 hPa 0 mm - - -
1777761341 13.89° C 92% 1012.8 hPa 0 mm - - -
1777760440 13.89° C 92% 1012.5 hPa 0 mm - - -
1777759539 13.89° C 92% 1012.8 hPa 0 mm - - -
1777758639 13.89° C 92% 1012.8 hPa 0 mm - - -

* Rain latest hour (hover to see other rain measurements)
** Current wind speed in m/s (hover to see current wind gust speed)